KSDF Airport Diagram

We have created a template for each of the higher traffic airports in the vZID airspace. They include KCMH, KCRW, KCVG, KDAY, KIND, KLEX and KSDF. You wil find usefull information including the airport diagram, weather, and specific airport procedures.

KSDF Weather

[Source: ADDS]
METAR
KSDF 171056Z 22003KT 10SM CLR 03/00 A3014 RMK AO2 SLP207 T00280000 =
KSDF 171121Z 1712/1818 VRB03KT P6SM SKC FM171400 29008KT P6SM SKC FM180200 VRB03KT P6SM SKC
TAF
KSDF 171121Z 1712/1818 VRB03KT P6SM SKC FM171400 29008KT P6SM SKC FM180200 VRB03KT P6SM SKC =

KSDF Operations

Calm Wind Configuration is runways 17L and 17R.

Runway 17L typically departs north and east.

Runway 17R typicall departs south and west.

 

JSN Epic template designed by JoomlaShine.com